CW2654 Weather Reports


time (UTC)temp
C
wind
direction
speed
KPH
gust
KPH
rain 1hr
cm
rain 24hr
cm
rain mn
cm
humidity
%
barometer
mb
20260503220053 29 0 0.0 20.9 0.00 0.00 0.00 32 1009.9
20260503214600 29 0 0.0 14.5 0.00 0.00 0.00 32 1010.1
20260503213052 28 9 1.6 9.7 0.00 0.00 0.00 34 1010.1
20260503211554 28 360 1.6 14.5 0.00 0.00 0.00 36 1010.2
20260503210052 28 158 0.0 11.3 0.00 0.00 0.00 33 1010.2
20260503204602 27 273 1.6 14.5 0.00 0.00 0.00 38 1010.2
20260503203055 27 0 1.6 6.4 0.00 0.00 0.00 40 1010.5
20260503201556 26 319 1.6 8.0 0.00 0.00 0.00 41 1010.8
20260503200053 26 331 3.2 8.0 0.00 0.00 0.00 43 1010.9
20260503194600 25 352 1.6 16.1 0.00 0.00 0.00 46 1011.0
20260503193108 25 331 1.6 6.4 0.00 0.00 0.00 48 1011.2
20260503191554 24 329 1.6 6.4 0.00 0.00 0.00 49 1011.3
20260503190108 23 331 1.6 12.9 0.00 0.00 0.00 51 1011.5
20260503184601 22 336 3.2 12.9 0.00 0.00 0.00 51 1011.6
20260503183110 22 335 1.6 6.4 0.00 0.00 0.00 54 1011.8
20260503181558 21 322 1.6 6.4 0.00 0.00 0.00 56 1011.9
20260503180058 21 333 3.2 8.0 0.00 0.00 0.00 54 1011.8
20260503174554 21 342 1.6 9.7 0.00 0.00 0.00 55 1011.8
20260503173113 20 9 1.6 6.4 0.00 0.00 0.00 59 1012.0
20260503171555 19 318 1.6 4.8 0.00 0.00 0.00 64 1012.2
20260503150138 12 0 0.0 0.0 0.00 0.00 0.00 94 1012.7
20260503140113 9 0 0.0 0.0 0.00 0.00 0.00 98 1012.6
20260503110104 8 105 1.6 6.4 0.00 0.00 0.00 97 1012.5
20260503100107 9 116 1.6 4.8 0.00 0.00 0.00 96 1012.8
20260503081615 10 106 3.2 6.4 0.00 0.08 0.00 96 1013.0
20260503071609 11 113 0.0 4.8 0.00 0.08 0.00 95 1013.2
20260503054556 13 190 0.0 4.8 0.00 0.08 0.08 94 1013.0
20260503053053 13 0 0.0 4.8 0.00 0.08 0.08 93 1012.8
20260503051559 13 109 0.0 3.2 0.00 0.08 0.08 93 1012.9
20260503050057 13 107 0.0 4.8 0.00 0.08 0.08 92 1013.3
20260503044558 13 101 0.0 3.2 0.00 0.08 0.08 92 1013.2
20260503043059 14 80 0.0 3.2 0.00 0.08 0.08 91 1013.4
20260503041556 15 0 0.0 0.0 0.00 0.08 0.08 89 1013.5
20260503040052 15 0 0.0 0.0 0.00 0.08 0.08 87 1013.5
20260503034553 16 0 0.0 3.2 0.00 0.08 0.08 86 1013.2
20260503033055 16 0 1.6 8.0 0.00 0.08 0.08 85 1013.2
20260503031550 16 121 1.6 9.7 0.00 0.08 0.08 82 1013.2
20260503030055 17 109 3.2 12.9 0.00 0.08 0.08 79 1013.2
20260503024600 17 109 1.6 11.3 0.00 0.08 0.08 79 1013.0
20260503023057 17 112 1.6 12.9 0.00 0.08 0.08 79 1012.9
20260503021558 18 0 0.0 6.4 0.00 0.08 0.08 80 1012.5
20260503020056 18 0 0.0 3.2 0.00 0.08 0.08 78 1012.3
20260503014621 18 0 0.0 3.2 0.00 0.08 0.08 76 1012.0
20260503013050 19 0 1.6 4.8 0.00 0.08 0.08 75 1012.0
20260503011601 19 189 0.0 4.8 0.00 0.08 0.08 76 1012.1
20260503010058 19 0 0.0 4.8 0.00 0.08 0.08 75 1012.0
20260503004600 19 0 0.0 3.2 0.00 0.08 0.08 76 1012.1
20260503003100 19 0 0.0 1.6 0.00 0.08 0.08 75 1012.1
20260503001554 18 0 0.0 3.2 0.00 0.08 0.08 75 1012.0
20260503000052 18 0 0.0 4.8 0.00 0.08 0.08 77 1012.1
20260502234555 18 0 0.0 1.6 0.00 0.08 0.08 76 1012.0
20260502233053 18 0 0.0 3.2 0.00 0.08 0.08 75 1012.0
20260502231553 18 0 0.0 4.8 0.00 0.08 0.08 75 1012.2
20260502230057 18 0 0.0 6.4 0.00 0.08 0.08 75 1012.3
20260502224608 18 0 0.0 8.0 0.00 0.08 0.08 76 1012.5
20260502223056 18 0 1.6 9.7 0.00 0.08 0.08 77 1012.9
20260502221552 17 0 1.6 6.4 0.00 0.08 0.08 74 1013.2